Location: Zagreb
(45.8000°N, 16.0000°E)
Time: 20:03:44
(UTC+02:00)

SR - Pass Details

Date: 19 August 2020
Orbit: 583 x 873 km, 66.7° (Epoch: 28 September)

Event Time Altitude Azimuth Distance (km) Brightness Sun altitude
Rises 19:59:48 0° 200° (SSW) 2,954 ? -1.3°
Reaches altitude 10° 20:02:10 10° 197° (SSW) 2,009 ? -1.7°
Maximum altitude 20:06:34 57° 119° (ESE) 716 ? -2.4°
Drops below altitude 10° 20:10:46 10° 40° (NE) 1,924 ? -3.1°
Sets 20:13:00 0° 37° (NE) 2,818 ? -3.5°
